Regional Weather Roundup
Issued by NWS Sioux Falls, SD

Home | Current Version | Previous Version | Text Only | Print | Product List | Glossary On
Versions: 1 2 3 4 5 6 7 8 9 10 11 12 13 14 15 16 17 18 19 20 21 22 23 24 25 26 27 28 29 30 31 32 33 34 35 36 37 38 39 40 41 42 43 44 45 46 47 48 49 50
107
ASUS43 KFSD 031002
RWRFSD

WEATHER ROUNDUP FOR SE SOUTH DAKOTA/SW MINNESOTA/NW IOWA
NATIONAL WEATHER SERVICE SIOUX FALLS SD
500 AM CDT TUE MAY 03 2016

NOTE: "FAIR" INDICATES FEW OR NO CLOUDS BELOW 12,000 FEET WITH NO
SIGNIFICANT WEATHER AND OR OBSTRUCTIONS TO VISIBILITY.


SDZ038>040-050-052>070-031100-
SOUTHEAST SOUTH DAKOTA

CITY           SKY/WX    TMP DP  RH WIND       PRES   REMARKS
BROOKINGS      CLEAR     40  37  89 CALM      30.01S
CHAMBERLAIN    NOT AVBL
HURON          CLEAR     39  38  96 CALM      30.02S
MADISON        FAIR      37  37 100 W6        30.02S
MITCHELL       CLEAR     44  43  96 W5        30.03S
SIOUX FALLS    CLEAR     37  34  89 CALM      30.02S
WINNER         FAIR      40  35  83 W3        30.05S
YANKTON        CLEAR     41  37  87 W5        30.02F
$$

MNZ071-072-080-081-089-090-097-098-031100-
SOUTHWEST MINNESOTA

CITY           SKY/WX    TMP DP  RH WIND       PRES   REMARKS
FAIRMONT       CLEAR     45  36  70 W9        30.00S
JACKSON        CLEAR     43  36  75 SW3       30.02R
LUVERNE        CLEAR     37  36  93 N3        30.02F
MARSHALL       NOT AVBL
MONTEVIDEO     CLEAR     45  37  76 NW7       30.00S
PIPESTONE      CLEAR     43  37  81 CALM      30.01S
REDWOOD FALLS  CLEAR     49  37  63 W10       29.98S
TRACY          CLEAR     50  40  67 W8        30.00S
WINDOM         CLEAR     43  37  81 CALM      30.01S
WORTHINGTON    CLEAR     43  38  82 SW5       30.03R
$$

IAZ001>003-012>014-020>022-031-032-NEZ013-014-SDZ071-031100-
NORTHWEST IOWA

CITY           SKY/WX    TMP DP  RH WIND       PRES   REMARKS
DENISON        CLEAR     39  37  93 CALM      30.02S
ESTHERVILLE    CLEAR     42  38  85 W8        30.01S
SIOUX CITY     CLEAR     43  38  82 CALM      30.03R
SPENCER        CLEAR     40  38  93 CALM      30.02S
STORM LAKE     CLEAR     46  37  71 SW7       30.03S
$$

ABBREVIATIONS USED IN REMARKS
   TC - TEMPERATURE IN CELSIUS
  WCI - WIND CHILL INDEX
   HX - HEAT INDEX
  VSB - VISIBILITY





USA.gov is the U.S. government's official web portal to all federal, state and local government web resources and services.